Location: Runa
(38.1429°N, 80.8510°W)
Time: 13:15:12
(UTC+00:00)

ISS - Pass Details

Date: 20 April 2026
Orbit: 414 x 424 km, 51.6° (Epoch: 12 May)

Event Time Altitude Azimuth Distance (km) Brightness Sun altitude
Exits shadow 08:06:55 14° 95° (E) 1,265 -0.9 -27.2°
Drops below altitude 10° 08:07:46 10° 83° (E) 1,496 -0.3 -27.0°
Sets 08:10:15 0° 65° (ENE) 2,366 1.2 -26.7°
